DW4238 Weather Reports


time (UTC)temp
C
wind
direction
speed
KPH
gust
KPH
rain 1hr
cm
rain 24hr
cm
rain mn
cm
humidity
%
barometer
mb
20260901125136 25 279 1.6 4.8 0.00 0.00 0.00 90 1015.5
20260901124603 25 275 0.0 1.6 0.00 0.00 0.00 90 1015.4
20260901124108 25 274 0.0 0.0 0.00 0.00 0.00 90 1015.4
20260901123129 25 272 0.0 0.0 0.00 0.00 0.00 89 1015.4
20260901122541 25 271 0.0 0.0 0.00 0.00 0.00 89 1015.2
20260901121546 25 271 0.0 0.0 0.00 0.00 0.00 89 1015.1
20260901121057 25 271 0.0 0.0 0.00 0.00 0.00 89 1015.0
20260901120119 25 269 0.0 0.0 0.00 0.00 0.00 89 1015.0
20260901115632 25 207 0.0 0.0 0.00 0.00 0.00 88 1014.9
20260901115136 25 207 0.0 0.0 0.00 0.00 0.00 88 1014.9
20260901114603 25 207 0.0 0.0 0.00 0.00 0.00 88 1014.9
20260901114116 25 162 0.0 0.0 0.00 0.00 0.00 88 1014.9
20260901113138 25 161 0.0 0.0 0.00 0.00 0.00 88 1014.9
20260901112624 25 161 0.0 0.0 0.00 0.00 0.00 88 1014.8
20260901111633 25 161 0.0 0.0 0.00 0.00 0.00 88 1014.8
20260901111117 26 161 0.0 0.0 0.00 0.00 0.00 88 1014.7
20260901110629 26 161 0.0 0.0 0.00 0.00 0.00 87 1014.7
20260901110044 26 160 0.0 0.0 0.00 0.00 0.00 87 1014.6
20260901105556 26 160 0.0 0.0 0.00 0.00 0.00 87 1014.5
20260901104556 26 159 0.0 0.0 0.00 0.00 0.00 87 1014.6
20260901104108 26 159 0.0 0.0 0.00 0.00 0.00 87 1014.7
20260901103129 26 159 0.0 0.0 0.00 0.00 0.00 87 1014.5
20260901102545 26 159 0.0 0.0 0.00 0.00 0.00 87 1014.5
20260901102130 26 159 0.0 0.0 0.00 0.00 0.00 86 1014.5
20260901101557 26 159 0.0 0.0 0.00 0.00 0.00 86 1014.5
20260901101109 26 159 0.0 0.0 0.00 0.00 0.00 86 1014.4
20260901100111 26 159 0.0 0.0 0.00 0.00 0.00 86 1014.3
20260901095622 26 159 0.0 0.0 0.00 0.00 0.00 86 1014.4
20260901094622 26 159 0.0 0.0 0.00 0.00 0.00 87 1014.3
20260901094126 26 159 0.0 0.0 0.00 0.00 0.00 87 1014.3
20260901093638 26 159 0.0 0.0 0.00 0.00 0.00 87 1014.4
20260901093041 26 159 0.0 0.0 0.00 0.00 0.00 87 1014.3
20260901092553 26 159 0.0 0.0 0.00 0.00 0.00 87 1014.4
20260901091615 26 161 0.0 0.0 0.00 0.00 0.00 86 1014.6
20260901091106 26 161 0.0 0.0 0.00 0.00 0.00 86 1014.6
20260901090107 26 161 0.0 0.0 0.00 0.00 0.00 86 1014.6
20260901085611 26 161 0.0 0.0 0.00 0.00 0.00 86 1014.5
20260901085123 26 161 0.0 0.0 0.00 0.00 0.00 86 1014.6
20260901084555 26 161 0.0 0.0 0.00 0.00 0.00 86 1014.6
20260901084101 26 161 0.0 0.0 0.00 0.00 0.00 86 1014.6
20260901083130 26 161 0.0 0.0 0.00 0.00 0.00 86 1014.6
20260901082635 26 161 0.0 0.0 0.00 0.00 0.00 86 1014.7
20260901082045 26 161 0.0 0.0 0.00 0.00 0.00 85 1014.7
20260901081651 26 161 0.0 0.0 0.00 0.00 0.00 85 1014.7
20260901081041 26 161 0.0 0.0 0.00 0.00 0.00 85 1014.7
20260901080107 26 161 0.0 0.0 0.00 0.00 0.00 86 1014.7
20260901075619 26 161 0.0 3.2 0.00 0.00 0.00 86 1014.7
20260901075118 26 161 0.0 4.8 0.00 0.00 0.00 86 1014.7
20260901074549 26 161 1.6 6.4 0.00 0.00 0.00 85 1014.6
20260901074100 26 159 3.2 6.4 0.00 0.00 0.00 85 1014.7
20260901073100 26 159 1.6 4.8 0.00 0.00 0.00 85 1014.7
20260901072603 27 160 0.0 3.2 0.00 0.00 0.00 85 1014.9
20260901071633 27 161 3.2 8.0 0.00 0.00 0.00 85 1014.9
20260901071041 27 161 3.2 6.4 0.00 0.00 0.00 85 1014.9
20260901070654 27 161 3.2 4.8 0.00 0.00 0.00 85 1014.9
20260901070053 27 155 3.2 4.8 0.00 0.00 0.00 85 1015.0
20260901065604 27 153 3.2 9.7 0.00 0.00 0.00 85 1015.1
20260901065046 27 153 3.2 9.7 0.00 0.00 0.00 84 1015.0
20260901064544 27 155 4.8 9.7 0.00 0.00 0.00 84 1015.0
20260901064054 27 159 4.8 9.7 0.00 0.00 0.00 84 1015.0
20260901063545 27 150 4.8 8.0 0.00 0.00 0.00 84 1015.0
20260901063057 27 148 3.2 8.0 0.00 0.00 0.00 84 1015.0
20260901062607 27 150 3.2 8.0 0.00 0.00 0.00 83 1015.0
20260901062122 27 150 3.2 8.0 0.00 0.00 0.00 83 1014.9
20260901061613 27 151 4.8 8.0 0.00 0.00 0.00 83 1014.9
20260901061042 27 154 4.8 9.7 0.00 0.00 0.00 83 1014.8
20260901060552 27 154 4.8 9.7 0.00 0.00 0.00 83 1014.8
20260901060045 27 152 6.4 9.7 0.00 0.00 0.00 83 1014.8
20260901055623 27 166 8.0 9.7 0.00 0.00 0.00 83 1014.7
20260901055045 27 166 6.4 8.0 0.00 0.00 0.00 82 1014.7
20260901054544 27 169 4.8 8.0 0.00 0.00 0.00 82 1014.6
20260901054053 27 169 6.4 8.0 0.00 0.00 0.00 82 1014.5
20260901053603 27 173 6.4 9.7 0.00 0.00 0.00 82 1014.5
20260901053056 27 178 4.8 9.7 0.00 0.00 0.00 82 1014.4
20260901052546 28 187 4.8 11.3 0.00 0.00 0.00 82 1014.4
20260901052118 28 192 6.4 12.9 0.00 0.00 0.00 82 1014.4
20260901051550 28 182 8.0 12.9 0.00 0.00 0.00 82 1014.4
20260901051039 28 177 8.0 12.9 0.00 0.00 0.00 81 1014.4
20260901050550 28 177 9.7 12.9 0.00 0.00 0.00 81 1014.4
20260901050048 28 187 8.0 11.3 0.00 0.00 0.00 81 1014.3
20260901045547 28 183 8.0 11.3 0.00 0.00 0.00 81 1014.3
20260901044611 28 178 9.7 12.9 0.00 0.00 0.00 80 1014.3
20260901044122 28 179 8.0 12.9 0.00 0.00 0.00 80 1014.3
20260901043634 28 186 8.0 12.9 0.00 0.00 0.00 79 1014.2
20260901043056 28 179 8.0 14.5 0.00 0.00 0.00 79 1014.2
20260901042606 28 187 8.0 14.5 0.00 0.00 0.00 78 1014.3
20260901041607 28 190 9.7 14.5 0.00 0.00 0.00 77 1014.2
20260901041111 28 197 8.0 14.5 0.00 0.00 0.00 76 1014.1
20260901040622 28 200 8.0 12.9 0.00 0.00 0.00 74 1014.1
20260901040053 29 188 6.4 11.3 0.00 0.00 0.00 72 1014.1
20260901035637 29 183 4.8 11.3 0.00 0.00 0.00 71 1014.1
20260901035044 29 174 4.8 11.3 0.00 0.00 0.00 70 1014.1
20260901034151 29 167 6.4 11.3 0.00 0.00 0.00 69 1014.1
20260901033635 30 170 8.0 9.7 0.00 0.00 0.00 69 1014.1
20260901033101 30 173 6.4 9.7 0.00 0.00 0.00 68 1014.1
20260901032614 30 180 8.0 12.9 0.00 0.00 0.00 67 1013.9
20260901031615 30 165 8.0 14.5 0.00 0.00 0.00 66 1013.9
20260901031120 30 155 8.0 14.5 0.00 0.00 0.00 66 1013.8
20260901030636 30 140 9.7 16.1 0.00 0.00 0.00 66 1013.8
20260901025606 30 150 9.7 16.1 0.00 0.00 0.00 66 1013.8
20260901024635 30 150 6.4 12.9 0.00 0.00 0.00 65 1013.5
20260901024118 30 153 8.0 12.9 0.00 0.00 0.00 65 1013.4
20260901023631 30 150 8.0 12.9 0.00 0.00 0.00 64 1013.2
20260901023052 30 148 6.4 14.5 0.00 0.00 0.00 65 1013.3
20260901022603 31 146 9.7 14.5 0.00 0.00 0.00 64 1013.1
20260901021627 31 160 8.0 12.9 0.00 0.00 0.00 64 1012.9
20260901021119 31 146 8.0 12.9 0.00 0.00 0.00 64 1013.0
20260901020142 31 148 6.4 16.1 0.00 0.00 0.00 64 1012.7
20260901015633 31 142 6.4 16.1 0.00 0.00 0.00 64 1012.8
20260901015136 31 147 9.7 17.7 0.00 0.00 0.00 64 1012.8
20260901014601 31 142 11.3 17.7 0.00 0.00 0.00 64 1012.8
20260901014051 31 142 8.0 14.5 0.00 0.00 0.00 64 1012.8
20260901013113 32 135 4.8 12.9 0.00 0.00 0.00 63 1012.8
20260901012622 32 132 8.0 16.1 0.00 0.00 0.00 63 1012.8
20260901012134 32 135 8.0 20.9 0.00 0.00 0.00 63 1012.8
20260901011602 32 150 9.7 20.9 0.00 0.00 0.00 62 1012.7
20260901011107 32 149 12.9 22.5 0.00 0.00 0.00 62 1012.6
20260901010111 32 140 16.1 24.1 0.00 0.00 0.00 61 1012.5
20260901005614 33 129 14.5 22.5 0.00 0.00 0.00 60 1012.5
20260901005125 33 146 12.9 22.5 0.00 0.00 0.00 59 1012.5
20260901004545 33 150 9.7 25.7 0.00 0.00 0.00 57 1012.5
20260901004102 33 163 11.3 20.9 0.00 0.00 0.00 55 1012.3
20260901003123 34 148 11.3 17.7 0.00 0.00 0.00 51 1012.4
20260901002635 35 149 9.7 17.7 0.00 0.00 0.00 50 1012.4
20260901002134 35 136 9.7 17.7 0.00 0.00 0.00 50 1012.3
20260901001602 35 164 8.0 16.1 0.00 0.00 0.00 49 1012.3
20260901001053 35 150 8.0 16.1 0.00 0.00 0.00 48 1012.3
20260901000114 35 170 9.7 12.9 0.00 0.00 0.00 47 1012.3
20260831235556 35 148 6.4 12.9 0.00 0.00 0.00 47 1012.3
20260831234630 35 141 3.2 14.5 0.00 0.00 0.00 47 1012.3
20260831234136 35 142 6.4 16.1 0.00 0.00 0.00 46 1012.2
20260831233627 35 150 6.4 14.5 0.00 0.00 0.00 46 1012.2
20260831232549 36 190 4.8 9.7 0.00 0.00 0.00 45 1012.2
20260831231611 36 153 11.3 14.5 0.00 0.00 0.00 44 1012.3
20260831231103 36 172 3.2 17.7 0.00 0.00 0.00 45 1012.2
20260831230127 36 165 11.3 22.5 0.00 0.00 0.00 45 1012.3
20260831225542 36 174 6.4 22.5 0.00 0.00 0.00 46 1012.4
20260831225155 36 150 8.0 16.1 0.00 0.00 0.00 46 1012.3
20260831224555 36 178 6.4 14.5 0.00 0.00 0.00 45 1012.3
20260831224108 36 99 4.8 14.5 0.00 0.00 0.00 46 1012.3
20260831223126 36 121 9.7 16.1 0.00 0.00 0.00 47 1012.4
20260831222638 36 159 12.9 19.3 0.00 0.00 0.00 47 1012.4
20260831222118 36 159 4.8 16.1 0.00 0.00 0.00 47 1012.5
20260831221545 36 178 8.0 16.1 0.00 0.00 0.00 48 1012.6
20260831221054 35 136 8.0 11.3 0.00 0.00 0.00 47 1012.5
20260831220606 35 140 6.4 14.5 0.00 0.00 0.00 48 1012.6
20260831220132 35 180 9.7 14.5 0.00 0.00 0.00 47 1012.6
20260831215539 35 151 11.3 17.7 0.00 0.00 0.00 47 1012.6
20260831215051 36 143 11.3 17.7 0.00 0.00 0.00 47 1012.6
20260831214633 36 89 9.7 14.5 0.00 0.00 0.00 46 1012.7
20260831214145 36 123 4.8 17.7 0.00 0.00 0.00 47 1012.7
20260831213636 36 117 8.0 17.7 0.00 0.00 0.00 47 1012.8
20260831213056 36 130 8.0 16.1 0.00 0.00 0.00 47 1012.8
20260831212541 36 204 14.5 16.1 0.00 0.00 0.00 46 1012.8
20260831211610 36 163 8.0 19.3 0.00 0.00 0.00 46 1012.9
20260831211114 36 167 8.0 22.5 0.00 0.00 0.00 46 1012.9
20260831210125 36 257 6.4 11.3 0.00 0.00 0.00 47 1013.0
20260831205631 36 163 3.2 14.5 0.00 0.00 0.00 47 1013.1
20260831205114 36 124 8.0 24.1 0.00 0.00 0.00 45 1013.3
20260831204539 36 182 11.3 24.1 0.00 0.00 0.00 44 1013.3
20260831204051 36 142 11.3 17.7 0.00 0.00 0.00 45 1013.4
20260831203113 36 142 9.7 16.1 0.00 0.00 0.00 46 1013.6
20260831202625 36 173 4.8 14.5 0.00 0.00 0.00 47 1013.6
20260831202129 35 198 6.4 16.1 0.00 0.00 0.00 47 1013.7
20260831201601 35 113 3.2 9.7 0.00 0.00 0.00 48 1013.8
20260831201113 35 90 4.8 17.7 0.00 0.00 0.00 48 1014.0
20260831200614 35 123 9.7 25.7 0.00 0.00 0.00 47 1014.0
20260831200046 35 148 14.5 25.7 0.00 0.00 0.00 48 1014.1
20260831195558 35 92 4.8 19.3 0.00 0.00 0.00 50 1014.1
20260831194621 35 78 9.7 17.7 0.00 0.00 0.00 50 1014.3
20260831194134 35 92 4.8 19.3 0.00 0.00 0.00 52 1014.4
20260831193638 35 161 3.2 14.5 0.00 0.00 0.00 52 1014.4
20260831192543 35 98 11.3 16.1 0.00 0.00 0.00 51 1014.6
20260831191545 35 180 8.0 19.3 0.00 0.00 0.00 52 1014.7
20260831191056 35 130 11.3 19.3 0.00 0.00 0.00 54 1014.8
20260831190115 34 128 8.0 16.1 0.00 0.00 0.00 54 1014.8
20260831185623 34 76 6.4 17.7 0.00 0.00 0.00 54 1014.9
20260831185128 34 168 9.7 17.7 0.00 0.00 0.00 54 1014.9
20260831184558 34 181 1.6 16.1 0.00 0.00 0.00 53 1015.0
20260831184110 34 171 11.3 16.1 0.00 0.00 0.00 53 1015.1
20260831183609 34 99 4.8 14.5 0.00 0.00 0.00 55 1015.1
20260831183039 34 134 3.2 16.1 0.00 0.00 0.00 55 1015.2
20260831182646 34 146 8.0 16.1 0.00 0.00 0.00 55 1015.2
20260831182134 34 142 3.2 12.9 0.00 0.00 0.00 56 1015.4
20260831181601 34 148 4.8 17.7 0.00 0.00 0.00 56 1015.4
20260831181106 34 132 8.0 14.5 0.00 0.00 0.00 57 1015.4
20260831180128 33 150 8.0 17.7 0.00 0.00 0.00 55 1015.6
20260831175543 33 172 3.2 19.3 0.00 0.00 0.00 56 1015.6
20260831174606 33 88 8.0 20.9 0.00 0.00 0.00 59 1015.8
20260831174058 33 113 6.4 20.9 0.00 0.00 0.00 58 1015.8
20260831173119 33 74 8.0 17.7 0.00 0.00 0.00 60 1015.8
20260831172630 33 26 4.8 14.5 0.00 0.00 0.00 61 1015.9
20260831172136 32 99 4.8 14.5 0.00 0.00 0.00 62 1015.9
20260831171603 32 156 3.2 14.5 0.00 0.00 0.00 63 1016.0
20260831171119 32 115 4.8 11.3 0.00 0.00 0.00 63 1016.0
20260831170120 32 157 3.2 14.5 0.00 0.00 0.00 64 1016.2
20260831165633 32 76 3.2 11.3 0.00 0.00 0.00 65 1016.2
20260831165133 32 189 1.6 11.3 0.00 0.00 0.00 64 1016.3
20260831164544 32 131 3.2 12.9 0.00 0.00 0.00 65 1016.3
20260831164048 32 80 6.4 14.5 0.00 0.00 0.00 65 1016.4
20260831163118 32 138 3.2 12.9 0.00 0.00 0.00 69 1016.4
20260831162613 31 139 6.4 14.5 0.00 0.00 0.00 68 1016.4
20260831161615 31 123 4.8 19.3 0.00 0.00 0.00 68 1016.3
20260831161127 31 144 6.4 19.3 0.00 0.00 0.00 69 1016.3
20260831160147 31 153 3.2 16.1 0.00 0.00 0.00 70 1016.4
20260831155633 31 221 4.8 16.1 0.00 0.00 0.00 70 1016.4
20260831155131 31 279 6.4 12.9 0.00 0.00 0.00 74 1016.3
20260831154541 30 205 8.0 12.9 0.00 0.00 0.00 74 1016.3
20260831154046 30 224 0.0 12.9 0.00 0.00 0.00 75 1016.3
20260831153114 30 241 6.4 12.9 0.00 0.00 0.00 76 1016.2
20260831152620 30 221 6.4 11.3 0.00 0.00 0.00 79 1016.2
20260831152136 30 227 4.8 12.9 0.00 0.00 0.00 79 1016.1
20260831151603 29 267 6.4 12.9 0.00 0.00 0.00 81 1016.1
20260831151108 29 245 8.0 12.9 0.00 0.00 0.00 82 1016.1
20260831150131 28 292 4.8 11.3 0.00 0.00 0.00 83 1016.2
20260831145543 28 248 4.8 11.3 0.00 0.00 0.00 84 1016.1
20260831144604 28 192 8.0 11.3 0.00 0.00 0.00 85 1016.2
20260831144118 28 201 0.0 11.3 0.00 0.00 0.00 85 1016.3
20260831143117 28 218 1.6 8.0 0.00 0.00 0.00 87 1016.2
20260831142629 28 231 1.6 6.4 0.00 0.00 0.00 88 1016.1
20260831142134 27 202 1.6 4.8 0.00 0.00 0.00 89 1016.0
20260831141602 27 202 0.0 8.0 0.00 0.00 0.00 89 1016.1
20260831141054 27 202 3.2 8.0 0.00 0.00 0.00 89 1016.0
20260831140054 27 158 0.0 0.0 0.00 0.00 0.00 90 1016.0
20260831135558 27 154 0.0 0.0 0.00 0.00 0.00 90 1015.9
20260831134630 26 153 0.0 0.0 0.00 0.00 0.00 91 1015.8
20260831134113 26 153 0.0 0.0 0.00 0.00 0.00 91 1015.7
20260831133625 26 153 0.0 0.0 0.00 0.00 0.00 92 1015.6
20260831132547 26 153 0.0 0.0 0.00 0.00 0.00 92 1015.5
20260831131610 25 153 0.0 0.0 0.00 0.00 0.00 92 1015.4
20260831131122 25 153 0.0 0.0 0.00 0.00 0.00 93 1015.4
20260831130627 25 152 0.0 0.0 0.00 0.00 0.00 93 1015.3
20260831130059 25 150 0.0 0.0 0.00 0.00 0.00 92 1015.3
20260831125610 25 150 0.0 0.0 0.00 0.00 0.00 92 1015.3